1496293201.11,27777,17.94,73948.3,6.03,-39.03,-39.29,0,*72
1496293202.37,27778,17.88,74032.5,6.03,-37.51,-37.93,0,*7B
1496293203.63,27779,17.88,74002.0,6.03,-37.09,-37.63,0,*78
1496293204.89,27780,17.94,73980.0,6.03,-36.13,-36.49,0,*7D
1496293206.12,27781,17.94,73984.0,6.07,-35.83,-36.19,0,*77
1496293207.35,27782,17.94,73976.3,6.07,-36.61,-37.03,0,*71
1496293208.59,27783,17.88,73968.3,6.07,-37.33,-37.81,0,*7C
1496293209.83,27784,17.94,73972.3,6.07,-36.79,-37.15,0,*79
1496293211.09,27785,17.88,73976.0,6.07,-37.51,-37.81,0,*7E
1496293212.36,27786,17.94,73984.0,6.07,-37.81,-37.81,0,*70
1496293213.61,27787,17.94,74006.0,6.09,-36.61,-36.97,0,*76
1496293214.85,27788,17.88,73988.8,6.09,-36.19,-36.43,0,*7F
1496293216.11,27789,17.94,73998.8,6.09,-36.25,-36.43,0,*71
1496293217.36,27790,17.88,74000.3,6.13,-36.79,-37.15,0,*79
1496293218.61,27791,17.88,73986.8,6.13,-36.43,-36.91,0,*7C
1496293219.86,27792,17.88,73970.5,6.13,-36.13,-36.43,0,*75
1496293221.09,27793,17.94,73974.8,6.17,-36.55,-36.73,0,*71
1496293222.33,27794,17.88,73980.0,6.17,-36.07,-36.31,0,*77
1496293223.62,27795,17.88,73996.0,6.17,-37.21,-37.99,0,*70
1496293224.9,27796,17.88,73968.3,6.17,-39.15,-39.71,0,*72
1496293226.15,27797,17.88,74018.0,6.15,-41.81,-42.57,0,*7B
1496293227.42,27798,17.94,73992.8,6.09,-41.73,-42.31,0,*74
1496293228.7,27799,17.88,74028.8,6.05,-40.09,-40.59,0,*79
1496293229.95,27800,17.94,73972.8,6.05,-40.59,-41.49,0,*73
1496293231.24,27801,17.88,73984.3,6.01,-39.79,-40.21,0,*75
1496293232.5,27802,17.94,73990.0,6.01,-38.67,-39.09,0,*7C
1496293233.75,27803,17.94,73994.3,6.01,-39.29,-39.65,0,*7C
1496293234.99,27804,17.94,73988.0,6.01,-39.65,-40.15,0,*7A
1496293236.21,27805,17.94,73988.5,5.99,-39.29,-39.47,0,*78
1496293237.41,27806,17.94,73976.5,5.99,-38.35,-38.73,0,*71
1496293238.66,27807,17.94,73972.0,5.97,-39.09,-39.53,0,*73
1496293239.95,27808,17.94,73974.8,5.97,-39.71,-40.29,0,*70
1496293241.19,27809,17.94,73976.3,5.95,-39.71,-40.15,0,*7C
1496293242.45,27810,17.88,73988.0,5.95,-39.41,-40.09,0,*7A
1496293243.73,27811,17.94,73992.3,5.93,-40.21,-40.59,0,*70
1496293244.99,27812,17.94,74022.3,5.93,-39.59,-40.03,0,*7D
1496293246.25,27813,17.88,73998.8,5.91,-38.11,-38.49,0,*72
1496293247.51,27814,17.94,73996.3,5.93,-37.33,-37.63,0,*7F
1496293248.77,27815,17.94,73980.5,5.93,-37.87,-38.11,0,*7B
1496293250.04,27816,17.94,73958.0,5.93,-37.27,-37.63,0,*78
1496293251.27,27817,17.88,73956.5,5.95,-38.23,-38.61,0,*79
1496293252.53,27818,17.88,73972.5,5.93,-38.11,-38.43,0,*71
1496293253.76,27819,17.88,73976.0,5.93,-38.43,-38.61,0,*77
1496293255.02,27820,17.88,73960.0,5.93,-38.43,-38.79,0,*74
1496293256.28,27821,17.88,73958.5,5.97,-37.57,-37.63,0,*7F
1496293257.51,27822,17.88,73964.8,5.93,-37.15,-37.33,0,*7B
1496293258.72,27823,17.94,73974.5,5.95,-36.85,-37.03,0,*77
1496293259.95,27824,17.94,73988.3,5.95,-37.03,-37.09,0,*75
1496293261.21,27825,17.88,74000.5,5.97,-38.23,-38.61,0,*7A
1496293262.49,27826,17.94,74002.0,5.97,-39.23,-39.71,0,*78
1496293263.75,27827,17.94,73984.3,5.93,-39.41,-39.65,0,*7C
1496293265.0,27828,17.94,73992.5,5.93,-39.03,-39.47,0,*75
1496293266.21,27829,17.88,73990.8,5.95,-38.61,-38.97,0,*7B
1496293267.46,27830,17.94,73984.8,5.93,-39.03,-39.47,0,*7C
1496293268.69,27831,17.88,73978.0,5.93,-39.47,-39.85,0,*73
1496293269.92,27832,17.94,73980.0,5.91,-38.97,-39.23,0,*72
1496293271.16,27833,17.94,73976.0,5.89,-38.73,-39.29,0,*7A
1496293272.44,27834,17.94,73964.8,5.89,-38.49,-39.03,0,*7C
1496293273.68,27835,17.94,73956.8,5.89,-39.91,-40.53,0,*72
1496293274.96,27836,17.94,73970.0,5.89,-39.53,-40.09,0,*70
1496293276.17,27837,17.94,73962.8,5.85,-38.17,-38.73,0,*7E
1496293277.44,27838,17.94,73954.0,5.85,-37.93,-38.23,0,*77
1496293278.68,27839,17.94,73952.5,5.85,-38.91,-39.09,0,*72
1496293279.92,27840,17.88,73948.0,5.85,-38.73,-39.15,0,*7D
1496293281.11,27841,17.94,73968.3,5.83,-38.43,-38.73,0,*78
1496293282.36,27842,17.88,73972.8,5.85,-37.39,-37.75,0,*76
1496293283.61,27843,17.94,73976.0,5.89,-37.21,-37.57,0,*72
1496293284.86,27844,17.94,74002.0,5.85,-36.61,-37.03,0,*7D
1496293286.07,27845,17.94,74006.5,5.91,-36.01,-36.55,0,*7D
1496293287.3,27846,17.88,73926.8,5.91,-37.45,-37.81,0,*77
1496293288.54,27847,17.94,73944.8,5.93,-36.67,-36.97,0,*73
1496293289.77,27848,17.88,73976.8,5.93,-38.43,-38.97,0,*7A
1496293291.02,27849,17.94,73990.8,5.93,-37.45,-37.69,0,*7C
1496293292.25,27850,17.94,73984.0,5.93,-36.97,-37.33,0,*75
1496293293.47,27851,17.94,73972.8,5.95,-36.43,-36.73,0,*7E
1496293294.7,27852,17.88,73966.3,5.95,-36.67,-36.91,0,*77
1496293295.94,27853,17.88,73974.0,5.95,-36.85,-37.21,0,*70
1496293297.17,27854,17.94,73980.8,5.99,-36.67,-37.21,0,*77
1496293298.41,27855,17.94,73978.3,5.99,-37.15,-37.51,0,*75
1496293299.67,27856,17.88,73992.8,5.97,-37.99,-38.35,0,*71
1496293300.89,27857,17.94,73976.8,5.97,-38.43,-38.97,0,*70
1496293302.18,27858,17.94,73950.0,5.97,-39.79,-40.29,0,*7D
1496293303.44,27859,17.88,73932.0,5.93,-39.47,-40.21,0,*7D
1496293304.7,27860,17.94,73934.3,5.93,-39.97,-40.47,0,*7A
1496293305.93,27861,17.94,73916.5,5.93,-39.85,-40.35,0,*7D
1496293307.19,27862,17.94,73916.3,5.91,-41.35,-41.81,0,*76
1496293308.39,27863,17.94,73966.8,5.83,-41.99,-42.51,0,*7C
1496293309.59,27864,17.94,73990.3,5.83,-40.47,-41.11,0,*7E
1496293310.81,27865,17.94,73996.5,5.83,-40.09,-40.73,0,*70
1496293312.09,27866,17.94,74000.8,5.81,-40.59,-40.97,0,*7E
1496293313.33,27867,17.94,74002.8,5.79,-38.67,-39.15,0,*7E
1496293314.59,27868,17.94,73998.3,5.77,-39.23,-39.53,0,*7C
1496293315.81,27869,17.94,74000.8,5.79,-38.85,-39.23,0,*79
1496293317.03,27870,17.94,74022.0,5.79,-39.15,-39.47,0,*7B
1496293318.25,27871,17.94,73994.0,5.77,-40.91,-41.11,0,*7A
1496293319.48,27872,17.94,73992.3,5.75,-42.13,-42.69,0,*7F
1496293320.71,27873,17.94,73992.8,5.73,-41.29,-42.05,0,*78
1496293321.93,27874,17.94,74022.0,5.71,-39.41,-39.85,0,*78
1496293323.12,27875,17.94,74010.5,5.71,-39.65,-40.15,0,*78
1496293324.38,27876,17.94,73960.8,5.69,-39.23,-39.53,0,*7C
1496293325.6,27877,17.94,73918.8,5.69,-38.35,-38.61,0,*7B
1496293326.87,27878,17.94,73944.5,5.69,-37.63,-37.99,0,*70
1496293328.07,27879,17.94,73970.0,5.67,-37.87,-38.17,0,*7C
1496293329.32,27880,17.94,73962.5,5.71,-37.51,-37.63,0,*7A
1496293330.53,27881,17.94,73948.8,5.73,-37.03,-37.27,0,*7E
1496293331.78,27882,17.88,73944.0,5.73,-36.61,-36.67,0,*7D
1496293333.03,27883,17.94,73958.3,5.77,-36.19,-36.25,0,*71
1496293334.27,27884,17.94,73974.8,5.77,-36.07,-36.37,0,*7A
1496293335.51,27885,17.94,73982.0,5.81,-36.67,-36.91,0,*78
1496293336.75,27886,17.88,73972.3,5.81,-37.69,-38.05,0,*77
1496293337.94,27887,17.94,73962.3,5.79,-37.45,-37.45,0,*74
1496293339.16,27888,17.94,73952.0,5.81,-36.85,-36.97,0,*7F
1496293340.4,27889,17.94,73962.3,5.83,-36.61,-36.79,0,*76
1496293341.64,27890,17.94,73974.0,5.85,-38.23,-38.61,0,*77
1496293342.86,27891,17.94,73974.3,5.83,-38.97,-39.15,0,*7D
1496293344.06,27892,17.94,73976.5,5.83,-38.35,-38.55,0,*73
1496293345.28,27893,17.94,74000.3,5.81,-39.65,-40.35,0,*7D
1496293346.49,27894,17.94,73994.8,5.81,-40.65,-41.03,0,*70
1496293347.72,27895,17.94,73994.5,5.77,-39.47,-39.91,0,*72
1496293348.93,27896,17.94,73968.5,5.75,-39.29,-39.85,0,*7E
1496293350.18,27897,17.94,73958.3,5.77,-39.65,-40.21,0,*75
1496293351.4,27898,17.94,73968.3,5.75,-39.71,-40.15,0,*7A
1496293352.63,27899,17.94,73968.3,5.75,-39.09,-39.59,0,*72
1496293353.85,27900,17.94,73976.0,5.75,-38.55,-38.79,0,*78
1496293355.04,27901,17.94,73970.8,5.75,-38.43,-38.73,0,*74
1496293356.27,27902,17.94,73962.0,5.71,-39.85,-40.41,0,*76
1496293357.5,27903,17.94,73954.3,5.73,-39.29,-39.35,0,*7E
1496293358.75,27904,17.94,73952.0,5.73,-37.81,-38.17,0,*74
1496293359.99,27905,17.94,73932.8,5.71,-37.51,-37.81,0,*7A
1496293361.24,27906,17.94,73934.0,5.75,-37.39,-37.63,0,*7F
1496293362.46,27907,17.94,73932.5,5.73,-36.67,-37.03,0,*74
1496293363.69,27908,17.94,73946.8,5.77,-36.19,-36.55,0,*74
1496293364.94,27909,17.94,73974.8,5.77,-36.25,-36.55,0,*7A
1496293366.16,27910,17.94,73972.5,5.79,-36.31,-36.49,0,*74
1496293367.39,27911,17.94,73970.3,5.81,-36.31,-36.67,0,*7E
1496293368.61,27912,17.94,73974.8,5.81,-35.77,-36.01,0,*7C
1496293369.85,27913,17.94,73990.0,5.83,-35.53,-36.13,0,*7A
1496293371.07,27914,17.94,73986.5,5.85,-37.45,-37.75,0,*7F
1496293372.29,27915,17.94,73982.8,5.83,-38.43,-38.91,0,*74
1496293373.53,27916,17.94,73990.3,5.83,-37.99,-38.11,0,*77
1496293374.75,27917,17.94,73996.3,5.83,-36.13,-36.43,0,*7C
1496293375.99,27918,17.94,73992.8,5.85,-36.13,-36.43,0,*75
1496293377.23,27919,17.94,73994.0,5.85,-35.53,-35.77,0,*77
1496293378.49,27920,17.94,73988.5,5.93,-36.19,-36.37,0,*70
1496293379.77,27921,17.94,73982.3,5.93,-36.79,-37.09,0,*7B
1496293381.01,27922,17.94,73962.8,5.93,-35.77,-36.01,0,*7C
1496293382.22,27923,17.94,73954.5,5.95,-35.59,-35.89,0,*74
1496293383.46,27924,17.94,73976.8,5.95,-36.07,-36.61,0,*7E
1496293384.72,27925,17.94,73994.3,5.95,-36.91,-37.63,0,*73
1496293385.98,27926,17.94,73986.3,5.95,-37.63,-37.81,0,*70
1496293387.25,27927,17.88,73972.0,5.95,-37.93,-38.23,0,*79
1496293388.51,27928,17.94,73954.8,5.97,-37.81,-38.17,0,*70
1496293389.76,27929,17.94,73946.0,5.99,-36.25,-36.61,0,*7F
1496293391.03,27930,17.94,73940.5,5.97,-35.77,-36.25,0,*7D
1496293392.26,27931,17.94,73960.8,5.99,-37.03,-37.51,0,*71
1496293393.49,27932,17.94,73960.5,5.99,-36.61,-36.97,0,*7C
1496293394.74,27933,17.94,73974.5,5.97,-37.09,-37.45,0,*72
1496293395.98,27934,17.94,73988.5,5.99,-36.97,-37.39,0,*76
1496293397.23,27935,17.88,73980.0,5.99,-36.61,-36.79,0,*7B
1496293398.47,27936,17.94,73994.8,6.01,-36.97,-37.15,0,*78
1496293399.75,27937,17.94,74002.0,6.01,-37.63,-37.93,0,*7D
1496293400.96,27938,17.94,74002.3,6.03,-36.97,-37.27,0,*75
1496293402.17,27939,17.94,73982.0,6.03,-36.73,-36.97,0,*74
1496293403.39,27940,17.94,73986.0,6.03,-36.79,-37.27,0,*7A
1496293404.65,27941,17.94,73964.8,6.03,-39.23,-39.79,0,*7E
1496293405.91,27942,17.94,73978.5,6.01,-39.41,-39.85,0,*78
1496293407.17,27943,17.94,74014.3,6.01,-39.59,-40.15,0,*77
1496293408.46,27944,17.94,74024.3,5.97,-39.15,-39.59,0,*72
1496293409.74,27945,17.94,74002.0,5.97,-38.79,-39.15,0,*70
1496293411.02,27946,17.94,73972.0,5.97,-38.79,-39.15,0,*73
1496293412.26,27947,17.94,73966.8,5.95,-37.81,-38.17,0,*7B
1496293413.5,27948,17.94,73972.3,5.95,-38.23,-38.55,0,*75
1496293414.76,27949,17.94,73976.8,5.95,-38.79,-39.15,0,*7E
1496293416.02,27950,17.94,73988.3,5.95,-40.59,-41.35,0,*76
1496293417.27,27951,17.94,73962.0,5.91,-40.79,-40.79,0,*78
1496293418.52,27952,17.94,73964.3,5.89,-39.85,-40.21,0,*72
1496293419.77,27953,17.94,73968.8,5.89,-38.85,-39.29,0,*74
1496293421.05,27954,17.94,73946.5,5.89,-39.53,-40.09,0,*75
1496293422.33,27955,17.94,73968.5,5.85,-39.59,-40.09,0,*72
1496293423.58,27956,17.94,73960.0,5.83,-39.15,-39.41,0,*7D
1496293424.83,27957,17.94,73932.5,5.83,-39.71,-40.29,0,*7E
1496293426.05,27958,17.88,73908.5,5.81,-39.85,-40.35,0,*75
1496293427.29,27959,17.94,73900.8,5.79,-39.59,-39.65,0,*79
1496293428.48,27960,17.94,73912.5,5.79,-38.61,-38.85,0,*76
1496293429.69,27961,17.94,73918.3,5.79,-39.23,-39.35,0,*7A
1496293430.97,27962,17.94,73936.3,5.77,-38.29,-38.49,0,*76
1496293432.17,27963,17.94,73968.0,5.79,-36.55,-36.67,0,*7E
1496293433.43,27964,17.94,73982.0,5.81,-37.51,-37.69,0,*74
1496293434.65,27965,17.94,74002.5,5.81,-37.27,-37.27,0,*7E
1496293435.87,27966,17.94,74014.0,5.81,-36.85,-36.97,0,*7E
1496293437.11,27967,17.94,74000.5,5.85,-36.61,-36.85,0,*72
1496293438.36,27968,17.94,73988.8,5.83,-37.81,-37.81,0,*71
1496293439.58,27969,17.88,73964.5,5.85,-38.43,-38.61,0,*76
1496293440.83,27970,17.94,73944.3,5.85,-37.21,-37.27,0,*78
1496293442.04,27971,17.94,73946.5,5.85,-36.07,-36.07,0,*7F
1496293443.26,27972,17.94,73944.3,5.85,-36.67,-36.85,0,*70
1496293444.52,27973,17.94,73934.3,5.89,-36.25,-36.55,0,*76
1496293445.79,27974,17.94,73908.8,5.89,-39.03,-39.03,0,*76
1496293447.04,27975,17.94,73942.3,5.89,-38.11,-38.17,0,*71
1496293448.28,27976,17.94,73960.3,5.91,-36.61,-36.67,0,*7B
1496293449.51,27977,17.94,73954.3,5.91,-36.31,-36.49,0,*73
1496293450.76,27978,17.94,73962.0,5.91,-36.13,-36.37,0,*75
1496293452.0,27979,17.88,73972.8,5.91,-36.49,-36.67,0,*7E
1496293453.26,27980,17.88,73956.5,5.93,-36.31,-36.49,0,*79
1496293454.53,27981,17.88,73954.8,5.95,-35.95,-35.95,0,*71
1496293455.76,27982,17.94,73954.3,5.95,-36.25,-36.31,0,*77
1496293456.99,27983,17.94,73974.5,5.97,-36.67,-37.03,0,*72
1496293458.22,27984,17.88,73938.3,5.97,-38.35,-38.73,0,*74
1496293459.45,27985,17.94,73928.8,5.97,-40.73,-40.91,0,*7B
1496293460.74,27986,17.94,73964.8,5.93,-39.79,-40.21,0,*73
1496293461.97,27987,17.94,73952.3,5.89,-39.47,-39.85,0,*74
1496293463.2,27988,17.94,73950.0,5.89,-41.61,-41.87,0,*7D
1496293464.47,27989,17.94,73982.8,5.85,-39.41,-39.71,0,*7B
1496293465.68,27990,17.94,73972.0,5.85,-37.27,-37.45,0,*74
1496293466.9,27991,17.94,73960.8,5.85,-36.67,-37.03,0,*72
1496293468.14,27992,17.94,73968.5,5.85,-39.09,-39.41,0,*7E
1496293469.39,27993,17.94,73960.0,5.83,-38.79,-39.15,0,*7E
1496293470.61,27994,17.88,73952.5,5.85,-38.17,-38.35,0,*74
1496293471.88,27995,17.88,73952.0,5.85,-36.91,-37.09,0,*75
1496293473.15,27996,17.88,73948.8,5.85,-36.25,-36.49,0,*7C
1496293474.39,27997,17.94,73942.3,5.85,-37.57,-37.81,0,*7C
1496293475.66,27998,17.94,73946.0,5.85,-37.63,-37.93,0,*77
1496293476.92,27999,17.94,73952.8,5.89,-36.61,-36.67,0,*73
1496293478.15,28000,17.88,73954.8,5.91,-35.83,-36.19,0,*7A
1496293479.39,28001,17.94,73964.0,5.91,-35.59,-35.95,0,*7B
1496293480.65,28002,17.94,73988.3,5.93,-35.65,-36.01,0,*7B
1496293481.93,28003,17.94,74040.3,5.93,-37.63,-37.99,0,*7E
1496293483.16,28004,17.94,74004.8,5.97,-37.75,-38.17,0,*73
1496293484.42,28005,17.94,73976.0,5.93,-38.05,-38.49,0,*75
1496293485.67,28006,17.94,73938.0,5.93,-39.03,-39.47,0,*7E
1496293486.93,28007,17.94,73976.5,5.89,-40.73,-40.85,0,*7D
1496293488.18,28008,17.94,73980.3,5.89,-40.09,-40.65,0,*71
1496293489.44,28009,17.88,73998.5,5.89,-40.85,-41.11,0,*76
1496293490.68,28010,17.94,73982.5,5.83,-39.53,-39.79,0,*70
1496293491.94,28011,17.94,73938.3,5.83,-39.15,-39.59,0,*71
1496293493.13,28012,17.94,73948.8,5.79,-38.61,-38.97,0,*76
1496293494.35,28013,17.94,73942.0,5.79,-38.43,-38.79,0,*77
1496293495.58,28014,17.94,73904.0,5.79,-38.05,-38.29,0,*77
1496293496.8,28015,17.94,73924.0,5.81,-38.61,-38.85,0,*75
1496293498.02,28016,17.94,73940.0,5.79,-37.63,-37.87,0,*71
1496293499.24,28017,17.94,73954.3,5.81,-36.55,-36.85,0,*70
1496293500.48,28018,17.94,73966.5,5.81,-35.95,-36.19,0,*75
1496293501.73,28019,17.94,73972.8,5.83,-36.61,-36.91,0,*7E
1496293502.95,28020,17.88,73962.5,5.85,-36.43,-36.67,0,*7B
1496293504.19,28021,17.94,73962.3,5.85,-35.53,-35.89,0,*7B
1496293505.45,28022,17.88,73970.8,5.89,-36.37,-36.73,0,*73
1496293506.68,28023,17.94,73980.0,5.91,-35.59,-35.83,0,*7C
1496293507.9,28024,17.94,73982.8,5.91,-35.41,-35.59,0,*75
1496293509.17,28025,17.88,73980.5,5.93,-35.01,-35.23,0,*7F
1496293510.41,28026,17.94,73980.3,5.93,-36.43,-36.67,0,*7A
1496293511.64,28027,17.94,73982.5,5.97,-36.43,-36.73,0,*7A
1496293512.89,28028,17.88,73978.3,5.97,-37.45,-37.93,0,*7D
1496293514.15,28029,17.94,73982.5,5.97,-37.45,-37.81,0,*7F
1496293515.38,28030,17.94,73982.0,5.97,-38.73,-39.09,0,*73
1496293516.61,28031,17.94,73968.0,5.97,-38.17,-38.43,0,*7F
1496293517.87,28032,17.94,73956.8,5.95,-37.63,-37.93,0,*70
1496293519.1,28033,17.94,73954.8,5.95,-36.73,-37.09,0,*72
1496293520.34,28034,17.94,73926.3,5.95,-37.03,-37.21,0,*79
1496293521.58,28035,17.88,73952.3,5.95,-35.59,-35.95,0,*78
1496293522.84,28036,17.94,73952.5,5.99,-35.07,-35.41,0,*75
1496293524.04,28037,17.94,73952.5,5.99,-35.47,-35.71,0,*73
1496293525.27,28038,17.94,73966.3,6.03,-35.65,-35.77,0,*7A
1496293526.51,28039,17.94,73996.5,6.03,-35.17,-35.41,0,*7B
1496293527.71,28040,17.94,73982.0,6.03,-35.17,-35.47,0,*73
1496293528.95,28041,17.94,73988.3,6.07,-35.47,-35.53,0,*76
1496293530.15,28042,17.94,73976.3,6.07,-35.89,-36.19,0,*7A
1496293531.4,28043,17.94,74006.5,6.07,-36.25,-36.67,0,*77
1496293532.63,28044,17.94,74004.8,6.07,-36.25,-36.43,0,*76
1496293533.84,28045,17.94,73930.5,6.07,-35.89,-36.07,0,*72
1496293535.08,28046,17.94,73928.0,6.09,-36.85,-36.97,0,*79
1496293536.33,28047,17.94,73924.0,6.09,-36.79,-37.27,0,*71
1496293537.61,28048,17.94,73950.3,6.13,-36.91,-37.09,0,*7F
1496293538.86,28049,17.88,73918.0,6.13,-36.37,-36.73,0,*7E
1496293540.09,28050,17.88,73958.8,6.13,-36.19,-36.43,0,*79
1496293541.34,28051,17.94,73950.5,6.15,-35.83,-36.13,0,*7B
1496293542.57,28052,17.94,73946.3,6.15,-37.09,-37.45,0,*7A
1496293543.8,28053,17.94,73954.3,6.15,-36.55,-36.61,0,*74
1496293545.0,28054,17.94,73988.8,6.15,-35.59,-35.77,0,*78
1496293546.26,28055,17.94,73990.3,6.17,-37.63,-38.05,0,*78
1496293547.5,28056,17.88,73990.3,6.15,-38.91,-39.29,0,*74
1496293548.78,28057,17.94,73970.0,6.13,-38.67,-38.91,0,*78
1496293550.02,28058,17.94,73932.8,6.13,-38.91,-39.47,0,*74
1496293551.26,28059,17.94,73928.3,6.09,-39.65,-40.15,0,*7D
1496293552.49,28060,17.88,73900.3,6.05,-40.35,-40.73,0,*70
1496293553.75,28061,17.94,73902.5,6.05,-40.41,-40.91,0,*7E
1496293555.04,28062,17.94,73942.0,6.01,-40.41,-40.85,0,*7C
1496293556.29,28063,17.94,73946.8,6.01,-40.21,-40.65,0,*75
1496293557.55,28064,17.94,73950.3,5.97,-39.59,-40.15,0,*78
1496293558.79,28065,17.94,73974.5,5.97,-39.91,-40.35,0,*7F
1496293560.08,28066,17.94,73976.8,5.93,-40.59,-40.97,0,*7A
1496293561.33,28067,17.88,74004.8,5.93,-39.15,-39.47,0,*7E
1496293562.6,28068,17.88,74008.8,5.93,-39.85,-40.21,0,*76
1496293563.83,28069,17.94,74006.5,5.91,-40.03,-40.41,0,*73
1496293565.08,28070,17.94,74004.8,5.89,-38.67,-38.85,0,*78
1496293566.36,28071,17.88,73974.5,5.89,-37.93,-38.11,0,*70
1496293567.64,28072,17.94,73942.0,5.89,-38.11,-38.29,0,*7D
1496293568.89,28073,17.94,73932.5,5.89,-37.69,-37.87,0,*77
1496293570.14,28074,17.94,73966.8,5.89,-38.35,-38.91,0,*7E
1496293571.39,28075,17.94,73984.8,5.89,-39.03,-39.35,0,*74
1496293572.65,28076,17.94,73978.5,5.89,-38.17,-38.29,0,*7F
1496293573.9,28077,17.88,73960.0,5.89,-37.15,-37.21,0,*74
1496293575.13,28078,17.94,73940.5,5.89,-36.97,-37.15,0,*77
1496293576.39,28079,17.94,73946.8,5.89,-36.61,-36.97,0,*74
1496293577.63,28080,17.94,73964.5,5.89,-36.19,-36.37,0,*77
1496293578.87,28081,17.94,73992.8,5.91,-38.05,-38.23,0,*77
1496293580.08,28082,17.94,73996.3,5.91,-39.85,-40.15,0,*77
1496293581.3,28083,17.94,73988.8,5.89,-39.35,-39.85,0,*73
1496293582.57,28084,17.94,73972.3,5.85,-40.79,-41.35,0,*7A
1496293583.82,28085,17.94,73942.5,5.83,-40.59,-40.97,0,*76
1496293585.07,28086,17.88,73962.3,5.85,-37.39,-37.57,0,*79
1496293586.29,28087,17.94,73974.5,5.83,-37.21,-37.45,0,*74
1496293587.54,28088,17.94,73968.3,5.83,-37.39,-37.63,0,*76
1496293588.81,28089,17.94,73964.5,5.85,-37.99,-38.23,0,*70
1496293590.04,28090,17.94,73960.5,5.83,-36.31,-36.61,0,*75
1496293591.31,28091,17.88,73954.8,5.85,-36.25,-36.49,0,*7D
1496293592.55,28092,17.94,73968.0,5.91,-35.83,-36.01,0,*78
1496293593.76,28093,17.94,73994.8,5.91,-35.59,-35.77,0,*7C
1496293595.02,28094,17.94,73984.3,5.91,-37.69,-38.29,0,*7C
1496293596.27,28095,17.88,74002.5,5.91,-40.21,-40.79,0,*7B
1496293597.52,28096,17.94,73982.3,5.89,-42.05,-42.51,0,*7D
1496293598.71,28097,17.94,73976.3,5.83,-41.17,-41.73,0,*75
1496293599.93,28098,17.94,73970.0,5.79,-38.67,-38.97,0,*72
1496293601.15,28099,17.94,73956.3,5.81,-38.05,-38.43,0,*79
1496293602.39,28100,17.94,73940.0,5.81,-36.67,-36.91,0,*73
1496293603.61,28101,17.88,73916.3,5.81,-36.67,-36.97,0,*74
1496293604.81,28102,17.94,73960.3,5.83,-36.67,-37.03,0,*79
1496293606.0,28103,17.94,73980.3,5.83,-37.03,-37.27,0,*7D
1496293607.22,28104,17.94,73980.5,5.85,-37.27,-37.57,0,*7D
1496293608.42,28105,17.94,73968.5,5.83,-37.03,-37.27,0,*7B
1496293609.69,28106,17.94,73932.8,5.85,-35.95,-36.13,0,*75
1496293610.91,28107,17.94,73934.3,5.91,-35.53,-35.59,0,*76
1496293612.17,28108,17.94,73944.0,5.93,-36.13,-36.55,0,*73
1496293613.43,28109,17.94,73948.8,5.93,-35.95,-36.19,0,*77
1496293614.69,28110,17.94,73956.5,5.93,-35.35,-35.77,0,*7E
1496293615.93,28111,17.94,73972.0,5.95,-35.35,-35.77,0,*79
1496293617.18,28112,17.88,73978.3,5.97,-35.35,-35.59,0,*74
1496293618.41,28113,17.94,73996.0,5.99,-35.29,-35.65,0,*79
1496293619.67,28114,17.94,73984.0,5.99,-37.51,-37.93,0,*78
1496293620.92,28115,17.94,73976.5,6.01,-36.61,-36.73,0,*76
1496293622.2,28116,17.94,73958.8,6.01,-36.61,-36.91,0,*79
1496293623.44,28117,17.94,73952.3,6.01,-36.19,-36.55,0,*7F
1496293624.7,28118,17.88,73960.8,6.01,-36.13,-36.55,0,*7A
1496293625.91,28119,17.94,73974.3,6.03,-36.31,-36.55,0,*79
1496293627.17,28120,17.94,73982.3,6.05,-35.95,-36.31,0,*7A
1496293628.45,28121,17.94,73966.8,6.05,-36.13,-36.49,0,*79
1496293629.66,28122,17.94,73968.8,6.07,-36.85,-37.03,0,*78
1496293630.89,28123,17.88,73976.8,6.07,-35.35,-35.71,0,*76
1496293632.1,28124,17.94,73974.0,6.07,-36.19,-36.43,0,*7E
1496293633.33,28125,17.94,73970.5,6.07,-36.19,-36.49,0,*75
1496293634.57,28126,17.88,73954.5,6.09,-35.71,-36.01,0,*79
1496293635.81,28127,17.94,73950.5,6.09,-35.71,-35.89,0,*7B
1496293637.08,28128,17.94,73946.0,6.13,-36.13,-36.37,0,*7E
1496293638.36,28129,17.94,73952.5,6.13,-35.65,-35.95,0,*76
1496293639.61,28130,17.94,73932.0,6.13,-35.83,-36.19,0,*71
1496293640.84,28131,17.94,73930.0,6.17,-36.67,-36.85,0,*78
1496293642.09,28132,17.94,73952.3,6.17,-37.45,-37.81,0,*7F
1496293643.32,28133,17.94,73982.0,6.15,-38.43,-38.67,0,*72
1496293644.53,28134,17.94,73968.5,6.15,-36.43,-36.73,0,*70
1496293645.73,28135,17.94,73976.5,6.15,-36.19,-36.43,0,*7D
1496293647.0,28136,17.94,74002.3,6.17,-35.89,-35.95,0,*7E
1496293648.23,28137,17.94,74006.3,6.17,-35.59,-35.89,0,*7F
1496293649.51,28138,17.94,73998.0,6.17,-35.35,-35.53,0,*7D
1496293650.76,28139,17.94,74002.8,6.17,-35.13,-35.41,0,*7B
1496293651.96,28140,17.88,74004.3,6.21,-35.17,-35.47,0,*72
1496293653.2,28141,17.88,73988.8,6.21,-35.07,-35.29,0,*7A
1496293654.43,28142,17.94,73974.8,6.25,-35.13,-35.41,0,*76
1496293655.65,28143,17.94,73968.8,6.25,-35.77,-36.01,0,*72
1496293656.86,28144,17.94,73950.3,6.25,-36.19,-36.55,0,*7F
1496293658.07,28145,17.88,73944.8,6.25,-36.01,-36.19,0,*7F
1496293659.31,28146,17.88,73976.8,6.25,-35.77,-35.95,0,*79
1496293660.55,28147,17.94,73974.0,6.27,-36.85,-37.03,0,*79
1496293661.82,28148,17.88,73984.3,6.27,-35.77,-35.95,0,*75
1496293663.1,28149,17.94,73976.0,6.27,-35.35,-35.35,0,*78
1496293664.35,28150,17.94,73974.0,6.29,-35.35,-35.41,0,*7D
1496293665.57,28151,17.94,73970.0,6.29,-35.35,-35.59,0,*75
1496293666.83,28152,17.94,73976.5,6.35,-35.23,-35.29,0,*7B
1496293668.08,28153,17.94,73976.5,6.31,-36.97,-37.39,0,*71
1496293669.36,28154,17.88,73978.3,6.31,-38.91,-39.29,0,*71
1496293670.58,28155,17.94,73968.0,6.29,-39.35,-39.71,0,*7B
1496293671.87,28156,17.94,73964.0,6.27,-39.03,-39.59,0,*79
1496293673.1,28157,17.94,73990.5,6.25,-38.61,-38.91,0,*7A
1496293674.38,28158,17.88,73976.3,6.23,-38.11,-38.49,0,*71
1496293675.65,28159,17.94,73984.8,6.23,-39.59,-39.91,0,*79
1496293676.92,28160,17.94,73976.3,6.23,-38.67,-39.23,0,*76
1496293678.16,28161,17.94,73952.8,6.19,-39.35,-40.09,0,*7E
1496293679.42,28162,17.94,73950.0,6.17,-39.71,-40.15,0,*7E
1496293680.68,28163,17.94,73944.3,6.17,-39.79,-40.15,0,*77
1496293681.95,28164,17.94,73948.8,6.15,-39.79,-40.21,0,*75
1496293683.2,28165,17.94,73968.3,6.15,-39.41,-39.97,0,*7C
1496293684.48,28166,17.88,73962.3,6.13,-38.79,-39.23,0,*7C
1496293685.71,28167,17.88,73960.3,6.09,-39.09,-39.35,0,*77
1496293686.94,28168,17.94,73968.3,6.07,-38.85,-39.29,0,*7E
1496293688.18,28169,17.94,73956.3,6.07,-38.11,-38.35,0,*7E
1496293689.38,28170,17.88,73928.3,6.07,-37.03,-37.33,0,*73
1496293690.62,28171,17.88,73940.0,6.07,-35.83,-36.19,0,*71
1496293691.85,28172,17.94,73912.8,6.09,-36.07,-36.43,0,*7C
1496293693.11,28173,17.88,73932.5,6.13,-36.91,-37.15,0,*7B
1496293694.37,28174,17.94,73964.0,6.13,-36.91,-37.15,0,*7C
1496293695.62,28175,17.94,73996.3,6.13,-35.95,-36.19,0,*77
1496293696.85,28176,17.88,73992.5,6.13,-35.77,-36.01,0,*71
1496293698.06,28177,17.94,73992.5,6.15,-35.59,-35.77,0,*78
1496293699.29,28178,17.94,73998.8,6.17,-35.59,-35.77,0,*75
1496293700.54,28179,17.94,73980.8,6.17,-35.41,-35.71,0,*7B
1496293701.77,28180,17.88,73946.5,6.19,-36.79,-37.15,0,*7B
1496293703.01,28181,17.88,73952.5,6.19,-38.11,-38.55,0,*71
1496293704.24,28182,17.94,73944.3,6.17,-40.03,-40.73,0,*7B
1496293705.46,28183,17.88,73932.5,6.15,-40.85,-41.41,0,*76